EW2817 Weather Reports


time (UTC)temp
C
wind
direction
speed
KPH
gust
KPH
rain 1hr
cm
rain 24hr
cm
rain mn
cm
humidity
%
barometer
mb
20260510200551 27 0 0.0 0.0 0.00 0.00 0.00 38 990.5
20260510195050 27 0 0.0 0.0 0.00 0.00 0.00 35 990.6
20260510193551 27 0 0.0 0.0 0.00 0.00 0.00 37 990.8
20260510192053 27 0 0.0 0.0 0.00 0.00 0.00 36 990.9
20260510190551 28 0 0.0 0.0 0.00 0.00 0.00 36 991.0
20260510185049 28 0 0.0 0.0 0.00 0.00 0.00 36 991.1
20260510182048 30 0 0.0 0.0 0.00 0.00 0.00 32 991.3
20260510175045 29 0 0.0 0.0 0.00 0.00 0.00 37 991.5
20260510173546 29 0 0.0 0.0 0.00 0.00 0.00 36 991.7
20260510172037 28 0 0.0 0.0 0.00 0.00 0.00 36 991.8
20260510165032 28 0 0.0 0.0 0.00 0.00 0.00 41 991.8
20260510163532 28 0 0.0 0.0 0.00 0.00 0.00 38 991.9
20260510162033 27 0 0.0 0.0 0.00 0.00 0.00 43 992.0
20260510160533 27 0 0.0 0.0 0.00 0.00 0.00 47 992.0
20260510155031 27 0 0.0 0.0 0.00 0.00 0.00 48 992.2
20260510153530 26 0 0.0 0.0 0.00 0.00 0.00 50 992.2
20260510150528 25 0 0.0 0.0 0.00 0.00 0.00 53 992.4
20260510145029 24 0 0.0 0.0 0.00 0.00 0.00 59 992.3
20260510143528 23 0 0.0 0.0 0.00 0.00 0.00 65 992.2
20260510140528 21 0 0.0 0.0 0.00 0.00 0.00 80 992.2
20260510135026 19 0 0.0 0.0 0.00 0.00 0.00 85 992.1
20260510133524 18 0 0.0 0.0 0.00 0.00 0.00 90 992.2
20260510132022 17 0 0.0 0.0 0.00 0.00 0.00 92 992.1
20260510130521 17 0 0.0 0.0 0.00 0.00 0.00 93 991.9
20260510125022 16 0 0.0 0.0 0.00 0.00 0.00 95 991.8
20260510123516 16 0 0.0 0.0 0.00 0.00 0.00 95 991.6
20260510120516 15 0 0.0 0.0 0.00 0.00 0.00 95 991.3
20260510115014 15 0 0.0 0.0 0.00 0.00 0.00 95 991.3
20260510113515 15 0 0.0 0.0 0.00 0.00 0.00 95 991.1
20260510112008 15 0 0.0 0.0 0.00 0.00 0.00 95 990.8
20260510110506 15 0 0.0 0.0 0.00 0.00 0.00 95 990.4
20260510105006 15 0 0.0 0.0 0.00 0.00 0.00 95 990.1
20260510103504 15 0 0.0 0.0 0.00 0.00 0.00 95 989.8
20260510102002 15 0 0.0 0.0 0.00 0.00 0.00 95 989.6
20260510100502 15 0 0.0 0.0 0.00 0.00 0.00 95 989.6
20260510095001 15 0 0.0 0.0 0.00 0.00 0.00 94 989.4
20260510093502 15 0 0.0 0.0 0.00 0.00 0.00 94 989.2
20260510085002 16 0 0.0 0.0 0.00 0.00 0.00 94 988.9
20260510083502 16 0 0.0 0.0 0.00 0.00 0.00 94 988.8
20260510081959 16 0 0.0 0.0 0.00 0.00 0.00 94 988.8
20260510074955 16 0 0.0 0.0 0.00 0.00 0.00 94 988.8
20260510073453 16 0 0.0 0.0 0.00 0.00 0.00 94 988.5
20260510071954 16 0 0.0 0.0 0.00 0.00 0.00 94 988.3
20260510070453 16 0 0.0 0.0 0.00 0.00 0.00 93 988.3
20260510064951 16 0 0.0 0.0 0.00 0.00 0.00 93 988.4
20260510063450 16 0 0.0 0.0 0.00 0.00 0.00 93 988.5
20260510054948 17 0 0.0 0.0 0.00 0.00 0.00 90 988.7
20260510053447 17 0 0.0 0.0 0.00 0.00 0.00 90 988.8
20260510051945 17 0 0.0 0.0 0.00 0.00 0.00 90 988.8
20260510050443 17 0 0.0 0.0 0.00 0.00 0.00 90 989.0
20260510044943 18 0 0.0 0.0 0.00 0.00 0.00 90 989.0
20260510043437 18 0 0.0 0.0 0.00 0.00 0.00 90 988.9
20260510041936 17 0 0.0 0.0 0.00 0.00 0.00 91 988.8
20260510034931 17 0 0.0 0.0 0.00 0.00 0.00 90 988.9
20260510031929 17 0 0.0 0.0 0.00 0.00 0.00 90 988.9
20260510030427 18 0 0.0 0.0 0.00 0.00 0.00 89 988.8
20260510023424 18 0 0.0 0.0 0.00 0.00 0.00 88 988.6
20260510021923 18 0 0.0 0.0 0.00 0.00 0.00 88 988.7
20260510020422 18 0 0.0 0.0 0.00 0.00 0.00 87 988.6
20260510013420 18 0 0.0 0.0 0.00 0.00 0.00 86 988.0
20260510004918 20 0 0.0 0.0 0.00 0.00 0.00 82 987.5
20260510003417 20 0 0.0 0.0 0.00 0.00 0.00 81 987.5
20260510001914 20 0 0.0 0.0 0.00 0.00 0.00 79 987.4
20260510000412 21 0 0.0 0.0 0.00 0.00 0.00 78 987.3
20260509234906 21 0 0.0 0.0 0.00 0.00 0.00 77 987.1
20260509231904 21 0 0.0 0.0 0.00 0.00 0.00 75 986.8
20260509230403 22 0 0.0 0.0 0.00 0.00 0.00 74 986.6
20260509224904 22 0 0.0 0.0 0.00 0.00 0.00 72 986.5
20260509221901 22 0 0.0 0.0 0.00 0.00 0.00 73 986.6
20260509220357 22 0 0.0 0.0 0.00 0.00 0.00 71 986.5
20260509214858 22 0 0.0 0.0 0.00 0.00 0.00 72 986.5
20260509213355 22 0 0.0 0.0 0.00 0.00 0.00 72 986.5
20260509211855 22 0 0.0 0.0 0.00 0.00 0.00 70 986.5
20260509210356 22 0 0.0 0.0 0.00 0.00 0.00 71 986.2
20260509204853 22 0 0.0 0.0 0.00 0.00 0.00 68 986.5